Wind_Speed
7 7 6 6 6 6 5 5 5 6 6 6 6 6 5 5 5 4 5 4 3 3 3 2 2 2 2 1 0 0 1 2 2 2 2 2 2 2 3 3 3 3 4
8 8 7 7 6 5 5 5 5 5 5 5 5 5 5 4 4 5 5 4 4 3 2 2 2 1 2 2 1 1 1 3 3 2 3 2 3 3 3 3 3 3 4
8 8 8 7 6 5 5 5 5 5 5 6 5 5 4 4 4 5 5 5 4 3 3 2 2 2 1 1 1 2 2 3 3 4 4 3 3 3 3 3 3 3 4
8 8 8 7 6 5 5 5 5 5 5 6 5 5 4 4 5 5 5 4 3 3 3 3 3 2 2 2 2 2 3 4 4 5 5 4 4 4 3 4 4 4 4
9 8 8 7 6 5 5 5 5 5 5 6 6 5 4 4 4 4 4 4 3 3 3 3 3 3 3 2 3 3 4 4 4 4 5 5 5 5 5 4 4 5 5
10 9 7 6 5 5 5 5 5 5 6 6 6 5 4 4 4 4 4 4 3 3 4 4 4 4 4 4 4 4 4 4 4 4 4 4 5 5 5 5 5 5 5
10 8 7 6 5 5 5 5 6 6 6 6 6 5 5 5 5 5 5 5 5 4 5 5 4 5 4 4 4 4 4 4 3 3 3 4 5 5 5 5 5 5 5
9 8 7 7 6 6 6 6 6 6 6 7 7 6 6 5 6 6 6 6 6 6 6 5 5 5 5 5 5 5 4 4 4 4 4 4 5 5 6 5 4 5 6
8 7 6 7 7 6 6 6 6 6 6 7 7 7 6 6 6 7 6 6 6 7 7 6 6 6 6 6 6 6 6 5 5 4 3 3 4 5 5 5 5 5 7
8 8 7 7 7 7 7 7 7 6 6 7 7 7 7 7 7 7 6 7 7 7 7 7 7 7 6 7 7 8 7 6 6 5 5 4 5 5 4 5 5 5 7
8 8 8 7 7 8 8 8 7 7 7 7 7 8 8 8 7 7 7 7 7 7 8 8 7 7 7 8 9 9 9 7 7 6 6 6 6 6 5 5 6 5 6
8 8 7 8 8 9 9 9 8 8 7 7 8 8 9 9 8 8 8 8 8 8 8 8 8 8 9 9 9 10 9 8 8 7 7 7 7 6 6 6 7 6 6
8 8 8 8 9 9 10 10 9 9 9 8 9 9 9 9 9 9 9 9 9 9 9 9 9 10 9 9 9 10 10 9 9 9 8 8 7 7 6 7 7 8 8
9 9 8 9 9 10 11 11 10 10 10 10 9 9 9 10 10 9 9 9 10 10 10 11 10 10 10 11 10 10 11 10 10 10 10 9 9 8 7 7 7 8 8
9 9 9 10 10 11 12 12 11 11 11 10 10 9 9 9 10 9 9 9 10 10 11 11 12 11 12 12 12 11 11 11 11 10 11 11 10 10 9 8 8 8 9
10 10 11 11 12 12 12 12 13 12 12 11 11 11 10 10 10 10 10 10 10 10 11 11 11 11 12 12 12 12 12 12 12 12 12 11 11 11 11 10 10 9 9
9 10 11 11 12 12 12 13 13 13 12 12 12 11 11 11 11 11 11 11 10 10 11 11 11 11 11 13 13 13 13 12 12 12 13 12 12 12 12 11 10 10 10
9 10 11 12 13 13 13 13 13 13 13 12 12 11 11 11 11 11 11 10 10 10 10 11 12 12 12 13 14 14 14 13 12 12 13 13 13 13 13 12 12 11 11
10 11 13 13 13 14 14 14 14 13 13 12 12 11 11 12 11 11 11 10 10 10 10 11 12 12 13 13 13 14 13 13 13 13 14 14 14 14 13 13 12 12 12
11 12 13 14 14 15 15 15 14 13 13 12 12 12 12 12 12 12 11 10 10 10 10 10 11 12 13 14 14 14 14 14 14 14 14 14 14 14 14 14 14 13 13
14 14 14 14 14 14 14 14 13 12 12 11 12 12 11 11 11 11 11 11 11 11 10 10 11 12 12 13 13 14 15 15 15 14 14 15 15 15 15 14 14 14 14
16 15 14 14 13 13 13 13 12 11 11 11 11 11 11 11 11 11 12 12 11 11 11 11 11 11 12 13 13 13 14 14 15 15 15 15 16 16 16 15 15 15 15
17 15 15 14 14 13 13 12 12 11 11 11 10 10 10 10 10 11 11 11 11 11 11 11 11 12 13 13 13 13 13 13 14 14 15 16 16 16 16 16 16 16 17
16 15 15 15 14 13 13 12 12 12 11 11 11 10 10 10 10 10 10 11 11 11 10 11 12 13 13 13 13 13 14 14 15 15 15 16 16 17 17 18 18 18 18
15 16 15 15 15 14 13 12 12 12 12 11 11 10 10 10 10 10 10 10 11 11 11 11 12 12 13 13 13 13 13 14 14 14 15 16 16 17 17 18 19 19 19
16 16 16 16 15 14 14 13 12 12 12 11 11 11 10 10 10 10 9 9 10 10 10 11 11 11 12 13 13 13 13 14 14 14 14 15 15 16 17 17 18 19 19
Wind_Direction
353 348 345 343 350 1 11 15 17 17 16 14 12 7 3 359 354 343 335 331 334 342 352 3 9 20 15 10 62 259 217 212 201 179 188 197 208 207 209 207 203 195 195
351 345 341 339 345 356 2 9 13 10 6 2 359 355 356 353 349 342 335 328 323 328 338 335 336 360 352 16 19 337 284 253 238 207 213 234 234 228 222 214 213 203 201
345 341 339 339 343 351 355 5 9 4 356 353 351 346 346 344 343 337 329 324 312 312 325 319 322 328 323 334 341 322 301 276 257 240 237 230 225 224 218 216 222 216 209
339 338 338 336 341 348 351 357 359 355 350 346 345 340 336 335 340 339 342 338 319 307 307 303 295 293 293 295 301 301 297 281 267 251 239 235 229 229 232 233 231 229 220
340 337 336 338 341 346 345 344 345 343 342 340 336 336 335 331 332 334 343 339 326 303 296 296 289 284 285 297 291 290 287 274 261 245 242 236 228 235 242 248 250 235 228
340 338 339 342 345 348 345 342 337 334 332 332 329 330 322 314 317 326 326 320 306 290 288 293 289 283 287 289 287 280 272 265 262 250 247 244 235 237 242 256 256 236 234
339 337 338 344 343 342 341 340 335 329 324 324 322 318 312 309 310 315 309 304 299 291 287 288 291 278 285 282 277 274 268 263 263 246 242 253 250 235 240 254 255 242 232
340 341 338 342 335 336 335 334 331 327 320 318 315 307 300 300 298 302 300 299 299 292 289 281 281 278 273 272 273 267 255 252 260 245 242 252 237 232 242 252 258 243 237
339 346 342 343 337 332 331 327 327 324 317 315 311 304 296 295 295 297 294 293 295 299 292 283 278 270 264 261 264 252 244 246 249 241 238 239 238 240 247 258 262 251 243
342 346 343 342 337 333 333 330 325 321 314 312 308 306 302 298 296 292 294 292 292 293 286 280 278 270 261 258 257 248 244 243 239 236 235 234 243 251 257 262 261 260 250
341 342 339 337 334 334 334 330 325 320 313 307 303 300 298 295 291 286 284 284 285 282 275 274 270 266 261 254 249 245 243 237 232 238 235 235 248 259 259 257 258 260 256
339 338 338 333 332 332 330 327 322 319 314 308 303 297 294 291 288 285 281 279 280 276 267 267 268 263 260 254 244 241 242 239 237 240 238 242 249 257 261 255 252 253 251
332 331 330 328 329 329 326 323 318 316 312 308 303 298 292 289 285 283 281 281 280 275 264 262 266 263 257 250 247 242 240 239 240 241 246 248 249 256 261 256 250 248 250
330 328 326 323 322 323 323 321 316 312 311 309 302 298 294 289 285 282 280 281 279 272 264 262 264 265 256 253 250 245 243 239 243 244 246 250 251 254 256 260 255 251 249
330 325 322 322 323 322 320 319 314 308 306 303 299 296 293 289 285 281 277 280 278 270 263 263 264 263 258 253 250 248 244 241 246 247 247 248 250 253 255 260 258 255 248
324 324 319 316 317 315 314 314 311 308 301 296 295 293 289 286 282 281 279 281 280 272 266 262 260 258 254 249 249 250 248 245 245 248 252 250 251 254 256 258 261 257 251
319 318 318 315 314 312 311 311 307 305 297 290 291 291 286 283 281 281 279 282 279 275 266 261 261 255 251 250 252 250 250 248 246 249 253 251 252 255 256 256 257 259 255
315 316 314 314 311 308 309 310 308 302 298 293 289 285 283 283 280 282 280 277 275 270 265 260 258 253 253 255 253 250 250 250 252 252 253 253 255 256 258 259 257 262 259
310 309 311 310 310 309 308 307 305 300 296 293 289 281 280 279 278 280 280 278 273 268 265 260 255 252 252 255 253 250 251 253 253 255 254 253 255 256 256 258 260 263 261
305 306 307 309 309 307 306 305 302 297 292 291 287 280 280 280 278 276 278 279 275 270 268 265 257 256 256 256 255 255 254 253 253 255 255 252 253 253 254 256 257 261 261
304 303 305 307 306 303 303 303 301 295 293 291 286 281 279 279 279 277 276 277 274 270 269 269 263 261 262 262 261 258 253 253 254 254 254 253 253 253 253 254 255 257 260
303 303 304 304 305 306 303 300 297 292 293 290 284 280 278 276 275 275 275 275 273 269 269 270 266 264 266 264 262 258 256 253 252 253 253 253 253 253 254 254 255 256 260
298 298 300 301 304 301 300 297 294 289 288 289 284 280 280 279 278 276 274 273 271 269 268 268 267 266 267 265 262 258 255 253 253 254 253 254 255 254 255 255 256 258 259
294 295 299 298 299 296 294 294 291 288 287 283 278 278 279 279 280 278 275 273 271 271 271 271 270 267 268 265 263 259 257 256 256 257 257 259 258 256 256 254 256 258 258
290 292 294 294 294 292 290 289 287 286 285 280 274 272 275 275 276 278 278 274 273 272 272 273 272 267 265 262 261 261 259 258 258 259 261 261 260 258 256 256 256 258 259
285 289 289 289 290 290 289 287 287 288 289 277 268 270 270 271 273 275 274 275 277 276 274 275 273 269 264 260 258 259 260 259 260 260 261 261 261 260 257 257 259 260 261
Height
5879 5879 5878 5877 5876 5875 5875 5875 5875 5875 5875 5875 5875 5875 5875 5875 5875 5875 5875 5875 5875 5876 5876 5877 5877 5877 5878 5878 5878 5879 5880 5880 5881 5881 5882 5883 5884 5884 5885 5885 5885 5886 5886
5879 5878 5877 5876 5876 5875 5875 5874 5874 5874 5874 5874 5874 5874 5875 5875 5874 5874 5874 5874 5874 5875 5876 5876 5877 5877 5878 5879 5879 5879 5879 5880 5880 5881 5882 5883 5883 5884 5884 5885 5885 5885 5886
5879 5878 5877 5876 5875 5875 5874 5874 5874 5874 5874 5874 5874 5874 5874 5874 5874 5874 5873 5872 5873 5874 5875 5876 5876 5877 5878 5878 5879 5879 5879 5879 5880 5881 5882 5882 5883 5883 5884 5884 5885 5885 5885
5878 5877 5876 5876 5875 5874 5874 5874 5874 5874 5874 5874 5874 5874 5874 5874 5873 5873 5872 5871 5872 5874 5875 5875 5876 5877 5877 5878 5878 5879 5879 5879 5880 5880 5881 5881 5882 5883 5883 5883 5884 5884 5884
5878 5877 5876 5875 5874 5874 5873 5873 5873 5874 5873 5873 5873 5873 5873 5873 5873 5873 5872 5872 5873 5874 5874 5875 5875 5876 5877 5877 5878 5878 5878 5879 5879 5879 5880 5881 5881 5882 5882 5882 5883 5883 5884
5877 5876 5875 5874 5874 5873 5873 5873 5873 5873 5873 5873 5872 5872 5872 5873 5873 5872 5872 5872 5873 5873 5874 5874 5875 5875 5876 5876 5876 5877 5877 5877 5878 5878 5879 5880 5880 5881 5881 5882 5882 5882 5883
5876 5875 5875 5874 5873 5872 5872 5872 5872 5872 5872 5872 5871 5871 5871 5872 5872 5872 5872 5872 5873 5873 5873 5873 5873 5874 5874 5875 5875 5875 5876 5876 5877 5877 5878 5879 5879 5880 5880 5881 5881 5881 5882
5876 5875 5874 5873 5872 5872 5872 5871 5871 5871 5871 5871 5871 5870 5870 5871 5871 5871 5871 5871 5871 5872 5872 5872 5873 5873 5873 5874 5874 5874 5875 5875 5876 5877 5877 5878 5878 5879 5879 5880 5880 5880 5881
5875 5874 5873 5872 5872 5871 5871 5870 5870 5870 5870 5870 5870 5869 5869 5869 5870 5870 5870 5870 5870 5871 5871 5871 5871 5872 5872 5873 5873 5873 5873 5874 5875 5876 5876 5877 5877 5878 5878 5879 5879 5879 5879
5874 5873 5872 5872 5871 5871 5870 5869 5869 5869 5869 5868 5868 5868 5868 5868 5868 5868 5868 5869 5869 5869 5869 5870 5870 5870 5871 5871 5872 5872 5872 5873 5874 5875 5875 5876 5877 5877 5877 5877 5877 5877 5878
5873 5873 5872 5871 5871 5870 5869 5868 5868 5868 5867 5867 5867 5867 5867 5867 5867 5867 5867 5867 5867 5867 5868 5868 5868 5868 5868 5869 5869 5870 5871 5872 5873 5873 5874 5875 5875 5876 5876 5876 5876 5876 5877
5873 5872 5871 5871 5870 5869 5868 5867 5867 5866 5866 5866 5865 5865 5865 5865 5865 5865 5866 5866 5865 5865 5866 5866 5866 5866 5867 5866 5866 5868 5869 5870 5871 5872 5873 5873 5874 5874 5874 5875 5875 5875 5875
5872 5871 5870 5870 5869 5868 5867 5866 5866 5865 5865 5864 5864 5864 5863 5863 5863 5863 5864 5864 5863 5863 5863 5864 5864 5864 5865 5865 5865 5866 5868 5869 5870 5870 5871 5872 5872 5873 5873 5873 5873 5873 5874
5871 5870 5869 5868 5868 5867 5866 5865 5864 5864 5863 5863 5862 5862 5861 5861 5861 5861 5861 5861 5861 5861 5861 5862 5863 5863 5863 5863 5864 5865 5866 5867 5868 5869 5869 5870 5871 5871 5871 5871 5871 5872 5872
5870 5869 5868 5867 5866 5865 5864 5863 5863 5862 5861 5861 5860 5860 5859 5859 5859 5859 5859 5859 5859 5859 5859 5859 5860 5860 5861 5861 5862 5863 5864 5865 5866 5867 5867 5868 5869 5869 5869 5869 5869 5870 5870
5868 5867 5866 5865 5865 5864 5862 5861 5860 5859 5859 5858 5858 5857 5857 5857 5857 5857 5857 5857 5856 5856 5857 5857 5857 5858 5858 5859 5860 5860 5861 5862 5863 5864 5865 5866 5866 5867 5867 5867 5868 5868 5868
5867 5866 5864 5864 5863 5862 5861 5859 5858 5857 5856 5856 5855 5855 5855 5854 5854 5854 5854 5854 5854 5854 5854 5854 5855 5855 5856 5857 5857 5858 5859 5860 5861 5861 5862 5863 5864 5864 5865 5865 5865 5865 5866
5865 5864 5863 5862 5861 5859 5858 5857 5855 5854 5853 5852 5852 5852 5852 5852 5852 5852 5852 5852 5851 5851 5851 5852 5852 5853 5853 5854 5854 5855 5856 5857 5858 5859 5859 5860 5861 5861 5862 5862 5863 5863 5863
5862 5861 5860 5859 5858 5857 5855 5854 5852 5851 5851 5850 5849 5849 5849 5849 5849 5849 5849 5849 5849 5849 5849 5849 5849 5850 5850 5851 5851 5852 5853 5854 5855 5855 5856 5857 5857 5858 5859 5859 5860 5860 5861
5860 5859 5858 5856 5855 5854 5852 5851 5849 5848 5848 5847 5847 5846 5846 5846 5846 5846 5846 5846 5846 5846 5846 5846 5846 5847 5847 5848 5848 5849 5850 5850 5851 5852 5853 5853 5854 5855 5855 5856 5857 5858 5858
5858 5856 5855 5853 5852 5851 5849 5847 5846 5845 5845 5844 5844 5843 5843 5843 5843 5843 5843 5843 5843 5843 5844 5844 5844 5844 5844 5844 5845 5845 5846 5847 5848 5849 5849 5850 5851 5851 5852 5853 5854 5854 5855
5855 5853 5852 5851 5849 5848 5846 5844 5843 5842 5842 5842 5841 5841 5840 5841 5841 5841 5841 5841 5840 5840 5840 5841 5841 5841 5841 5841 5841 5842 5842 5844 5844 5845 5846 5846 5847 5848 5848 5849 5850 5851 5851
5852 5850 5849 5848 5846 5845 5843 5842 5841 5840 5840 5839 5839 5838 5838 5838 5838 5838 5838 5838 5838 5837 5837 5837 5837 5837 5838 5838 5838 5838 5839 5840 5840 5841 5842 5843 5843 5844 5845 5845 5846 5847 5847
5848 5847 5846 5844 5843 5842 5840 5839 5839 5838 5837 5836 5836 5836 5835 5835 5835 5835 5835 5835 5835 5834 5834 5834 5834 5834 5834 5834 5834 5835 5836 5836 5837 5838 5839 5839 5839 5840 5841 5841 5842 5842 5842
5844 5843 5842 5841 5840 5838 5837 5836 5836 5835 5834 5834 5833 5833 5833 5833 5833 5832 5832 5832 5831 5831 5831 5831 5830 5830 5831 5831 5831 5831 5832 5832 5833 5834 5835 5835 5836 5836 5836 5837 5837 5838 5838
5841 5839 5838 5837 5836 5835 5834 5833 5832 5832 5831 5831 5831 5831 5831 5830 5830 5830 5829 5829 5828 5828 5827 5827 5827 5827 5827 5827 5827 5828 5829 5829 5830 5830 5831 5831 5831 5832 5832 5833 5833 5833 5834